Lid_Strength_Index
5 5 5 5 5 5 4 4 4 4 3 3 4 4 5 5 6 5 5 5 5 5
6 6 6 6 5 5 4 4 4 4 4 4 4 4 5 5 6 6 6 5 5 5
6 6 6 6 6 6 5 5 4 4 4 4 4 4 5 5 6 6 6 5 6 6
5 6 6 7 6 6 6 6 5 5 5 4 4 4 5 5 6 6 6 6 6 6
5 5 5 6 7 6 6 6 6 5 5 5 5 5 5 6 6 6 7 7 7 6
5 5 5 5 5 6 6 6 6 6 6 6 5 5 5 5 6 6 6 6 7 6
5 5 5 5 5 5 5 6 6 6 6 6 6 6 5 5 6 6 6 7 7 6
4 4 4 5 5 5 5 5 6 6 6 6 6 6 6 6 6 6 7 7 8 7
5 4 4 5 5 5 5 5 5 6 6 6 6 11 9 6 6 6 7 7 8 7
5 4 4 4 5 5 5 5 5 6 6 6 6 10 9 10 6 6 6 6 7 8
4 4 4 4 5 5 5 5 5 5 5 6 6 9 9 10 6 6 6 6 6 7
7 4 5 5 5 4 4 5 5 5 6 6 6 9 10 9 7 7 7 7 6 6
9 7 4 4 4 4 4 5 6 6 5 8 6 9 9 9 7 7 8 7 7 12
10 10 9 5 5 5 5 6 6 6 5 6 6 7 9 9 7 8 8 8 8 7